This is the latest recevied weather packets stored in our database for station/object APPOWX. If no packets are shown the sender has not sent any weather packets the latest 10 day(s).
| Time | Temp. | Humidity | Pressure | Rain* | Wind** | Luminosity | Snow |
|---|---|---|---|---|---|---|---|
| 1778247724 | 12.22° C | 60% | 1019.8 hPa | 0 mm | - | - | - |
| 1778247664 | 12.22° C | 60% | 1019.9 hPa | 0 mm | - | - | - |
| 1778247603 | 12.22° C | 61% | 1019.8 hPa | 0 mm | - | - | - |
| 1778247544 | 12.22° C | 67% | 1019.7 hPa | 0 mm | - | - | - |
| 1778247484 | 12.22° C | 69% | 1019.6 hPa | 0 mm | - | - | - |
| 1778247423 | 12.22° C | 71% | 1019.6 hPa | 0 mm | - | - | - |
| 1778247363 | 12.22° C | 63% | 1019.9 hPa | 0 mm | - | - | - |
| 1778247303 | 12.22° C | 69% | 1019.7 hPa | 0 mm | - | - | - |
| 1778247244 | 12.78° C | 70% | 1019.8 hPa | 0 mm | - | - | - |
| 1778247183 | 12.78° C | 76% | 1019.7 hPa | 0 mm | - | - | - |
| 1778247123 | 12.78° C | 76% | 1019.6 hPa | 0 mm | - | - | - |
| 1778247063 | 12.22° C | 75% | 1019.9 hPa | 0 mm | - | - | - |
| 1778247003 | 12.22° C | 74% | 1019.7 hPa | 0 mm | - | - | - |
| 1778246943 | 12.22° C | 72% | 1019.7 hPa | 0 mm | - | - | - |
| 1778246883 | 12.22° C | 71% | 1019.6 hPa | 0 mm | - | - | - |
| 1778246823 | 12.22° C | 71% | 1019.7 hPa | 0 mm | - | - | - |
| 1778246762 | 11.67° C | 77% | 1019.6 hPa | 0 mm | - | - | - |
| 1778246703 | 11.67° C | 75% | 1019.7 hPa | 0 mm | - | - | - |
| 1778246643 | 11.67° C | 78% | 1019.5 hPa | 0 mm | - | - | - |
| 1778246583 | 11.67° C | 81% | 1019.8 hPa | 0 mm | - | - | - |
| 1778246522 | 11.67° C | 82% | 1019.9 hPa | 0 mm | - | - | - |
| 1778246462 | 11.67° C | 82% | 1019.7 hPa | 0 mm | - | - | - |
| 1778246403 | 11.11° C | 81% | 1019.8 hPa | 0 mm | - | - | - |
| 1778246342 | 11.11° C | 79% | 1019.8 hPa | 0 mm | - | - | - |
| 1778246282 | 11.11° C | 79% | 1019.7 hPa | 0 mm | - | - | - |
* Rain latest hour (hover to see other rain measurements)
** Current wind speed in m/s (hover to see current wind gust speed)